Weather History for 78866 - December, 2013

Change the Weather History Date:

Thursday, December 5, 2013

  Actual Average Record
Temperature  
Mean Temperature 78 °F -  
Max Temperature 82 °F 82 °F - ()
Min Temperature 73 °F 73 °F - ()
Cooling Degree Days 12    
Growing Degree Days 28 (Base 50)    
Moisture  
Dew Point 71 °F    
Average Humidity 75    
Maximum Humidity 88    
Minimum Humidity 64    
Precipitation  
Precipitation 0.08 in 0.11 in - ()
Sea Level Pressure  
Sea Level Pressure 30.00 in    
Wind  
Wind Speed 6 mph ()    
Max Wind Speed 10 mph    
Max Gust Speed -    
Visibility 7.1 miles    
Events Rain , Thunderstorm    
T = Trace of Precipitation, MM = Missing Value Source: Averaged Metar Reports

Daily Weather History Graph

Daily Weather History Graph

Search for Another Location

Airport or City:

Trip Planner

Search our weather history database for the weather conditions in past years. The results will help you decide how hot, cold, wet, or windy it might be!

Date:

Astronomy

Dec. 05, 2013 Rise Set
Actual Time 6:30 AM AST 5:36 PM AST
Civil Twilight 6:06 AM AST 5:59 PM AST
Nautical Twilight 5:39 AM AST 6:26 PM AST
Astronomical Twilight 5:12 AM AST 6:53 PM AST
Moon 8:56 AM AST (12/5) 8:38 PM AST (12/5)
Length of Visible Light 11h 53m
Length of Day
11h 05m
Waxing Crescent, 10% of the Moon is Illuminated
Dec 5
Waxing Crescent
Dec 9
First Quarter
Dec 17
Full
Dec 25
Last Quarter
Jan 1
New

Hourly Weather History & Observations

Time (AST) Temp. Heat Index Dew Point Humidity Pressure Visibility Wind Dir Wind Speed Gust Speed Precip Events Conditions
12:00 AM 80.6 °F 84.6 °F 71.6 °F 74% 30.01 in 6.2 mi ENE 6.9 mph - N/A Rain Light Rain Showers
1:00 AM 80.6 °F 84.6 °F 71.6 °F 74% 30.01 in 6.2 mi East 5.8 mph - N/A   Partly Cloudy
2:00 AM 80 °F - 71 °F 67% 29.99 in 28 mi East 5.8 mph - -   Partly Cloudy
2:00 AM 80.6 °F 84.6 °F 71.6 °F 74% 29.98 in 6.2 mi East 5.8 mph - N/A   Partly Cloudy
3:00 AM 78.8 °F - 71.6 °F 78% 29.98 in 6.2 mi NE 3.5 mph - N/A   Scattered Clouds
4:00 AM 77.0 °F - 71.6 °F 83% 29.95 in 6.2 mi ESE 4.6 mph - N/A   Mostly Cloudy
5:00 AM 77 °F - 72 °F 79% 29.98 in 28 mi East 2.3 mph - -   Partly Cloudy
5:00 AM 77.0 °F - 71.6 °F 83% 29.98 in 6.2 mi NE 1.2 mph - N/A   Scattered Clouds
6:00 AM 77.0 °F - 71.6 °F 83% 29.98 in 6.2 mi East 9.2 mph - N/A Thunderstorm Thunderstorm
7:00 AM 73.4 °F - 69.8 °F 88% 30.00 in 3.1 mi East 10.4 mph - N/A Rain Rain Showers
8:00 AM 75 °F - 69 °F 77% 30.02 in 19 mi East 6.9 mph - - Rain Light Rain
8:00 AM 75.2 °F - 68.0 °F 78% 30.01 in 6.2 mi East 6.9 mph - N/A Rain Light Rain
9:00 AM 77.0 °F - 71.6 °F 83% 30.04 in 6.2 mi ENE 5.8 mph - N/A   Mostly Cloudy
10:00 AM 78.8 °F - 71.6 °F 78% 30.04 in 6.2 mi ENE 9.2 mph - N/A   Scattered Clouds
11:00 AM 82 °F - 72 °F 64% 30.04 in 25 mi NE 6.9 mph - -   Mostly Cloudy
11:00 AM 82.4 °F 87.2 °F 71.6 °F 70% 30.04 in 6.2 mi NE 6.9 mph - N/A   Mostly Cloudy
12:00 PM 80.6 °F 83.9 °F 69.8 °F 70% 30.01 in 6.2 mi ENE 8.1 mph - N/A   Scattered Clouds
1:00 PM 82.4 °F 87.2 °F 71.6 °F 70% 29.98 in 6.2 mi NE 6.9 mph - N/A Rain Light Rain
2:00 PM 81 °F - 72 °F 68% 29.99 in 25 mi ESE 4.6 mph - - Rain Light Rain
2:00 PM 80.6 °F 84.6 °F 71.6 °F 74% 29.98 in 6.2 mi ESE 4.6 mph - N/A Rain Light Rain
3:00 PM 80.6 °F 84.6 °F 71.6 °F 74% 29.98 in 6.2 mi NE 8.1 mph - N/A Rain Light Rain
4:00 PM 80.6 °F 84.6 °F 71.6 °F 74% 29.98 in 6.2 mi NE 5.8 mph - N/A   Scattered Clouds
5:00 PM 81 °F - 72 °F 66% 30.00 in 19 mi ENE 9.2 mph - -   Partly Cloudy
5:00 PM 80.6 °F 84.6 °F 71.6 °F 74% 29.98 in 6.2 mi ENE 9.2 mph - N/A   Scattered Clouds
6:00 PM 78.8 °F - 69.8 °F 74% 30.01 in 6.2 mi East 10.4 mph - N/A   Scattered Clouds
7:00 PM 78.8 °F - 69.8 °F 74% 29.98 in 6.2 mi East 5.8 mph - N/A   Scattered Clouds
8:00 PM 79 °F - 71 °F 70% 30.01 in 25 mi ENE 6.9 mph - -   Partly Cloudy
8:00 PM 78.8 °F - 71.6 °F 78% 30.01 in 6.2 mi ENE 6.9 mph - N/A   Partly Cloudy
9:00 PM 78.8 °F - 71.6 °F 78% 30.01 in 6.2 mi ENE 8.1 mph - N/A   Partly Cloudy
10:00 PM 78.8 °F - 71.6 °F 78% 30.01 in 6.2 mi ENE 9.2 mph - N/A   Partly Cloudy
11:00 PM 78 °F - 71 °F 74% 30.02 in 25 mi East 6.9 mph - -   Scattered Clouds
11:00 PM 78.8 °F - 71.6 °F 78% 30.01 in 6.2 mi East 6.9 mph - N/A   Partly Cloudy